Regional Weather Roundup
Issued by NWS

Home | Current Version | Previous Version | Text Only | Print | Product List | Glossary On
Versions: 1 2 3 4 5 6 7 8 9 10 11 12 13 14 15 16 17 18 19 20 21 22 23 24 25 26 27 28 29 30 31 32 33 34 35 36 37 38 39 40 41 42 43 44 45 46 47 48 49 50
000
ASUS43 KDTX 250410
RWRMI
MICHIGAN HOURLY REGIONAL WEATHER ROUNDUP
NATIONAL WEATHER SERVICE DETROIT/PONTIAC MI
1200 AM EDT THU AUG 25 2016

NOTE: "FAIR" INDICATES FEW OR NO CLOUDS BELOW 12,000 FEET WITH NO
SIGNIFICANT WEATHER AND/OR OBSTRUCTION TO VISIBILITY.

MIZ047>049-052>055-059>063-066>070-074>076-081>083-250500-
SOUTHEAST LOWER MICHIGAN

CITY           SKY/WX    TMP DP  RH WIND       PRES   REMARKS
ADRIAN         CLEAR     71  70  96 W5        29.97S
ALMA           CLOUDY    73  73  98 CALM      29.94F
ANN ARBOR      CLEAR     71  71 100 S3        29.95F FOG
BAD AXE        CLEAR     72  71  96 SW5       29.93F
CARO           MOCLDY    72  71  97 SW6       29.93F
DETROIT CITY   MOCLDY    75  74  96 CALM      29.94F
DETROIT        CLOUDY    75  73  93 SW3       29.95F
FLINT          PTCLDY    75  71  87 CALM      29.94F
GROSSE ILE     MOCLDY    74  72  93 CALM      29.93F
HILLSDALE      CLEAR     72  70  93 W3        29.98S
HOWELL         PTCLDY    72  71  96 W3        29.95F

CITY           SKY/WX    TMP DP  RH WIND       PRES   REMARKS
JACKSON        PTCLDY    72  72 100 SW5       29.96F
LAMBERTVILLE   CLEAR     73  70  90 W6        29.96S
LANSING        MOCLDY    73  71  93 W3        29.96S
LAPEER         FAIR      72  70  95 SE5       29.95S
MASON          MOCLDY    73  71  93 SW3       29.96S
MONROE         CLEAR     74  73  98 W6        29.93F
MT. CLEMENS    FOG       72  72 100 S3        29.92F VSB 1/2
PONTIAC        PTCLDY    73  71  93 SW3       29.94F
PORT HURON     FOG       70  70 100 CALM      29.94F VSB 3/4
TRI CITIES     PTCLDY    73  71  93 SW6       29.94F
MIDLAND        FAIR      73  71  93 SW6       29.92F
TROY           PTCLDY    76  73  91 CALM      29.95F
SAGINAW HB     CLEAR     72  70  94 SW5       29.93F
$$
MIZ043>046-050>051-056>058-064>065-071>073-077>080-250500-
SOUTHWEST LOWER MICHIGAN

CITY           SKY/WX    TMP DP  RH WIND       PRES   REMARKS
BATTLE CREEK   CLEAR     70  70 100 SW6       29.97F
BENTON HARBOR  CLEAR     72  69  90 CALM      29.96F
BIG RAPIDS     CLOUDY    74  72  92 SW7       29.94S
COLDWATER      PTCLDY    71  71  99 W5        29.98S
FREMONT        CLOUDY    72  71  98 CALM      29.94F
HOLLAND        PTCLDY    72  70  93 CALM      29.95F
GRAND RAPIDS   MOCLDY    74  71  91 SW7       29.95F
IONIA          FAIR      71  69  93 SW5       29.94F
KALAMAZOO      CLEAR     73  70  90 SW5       29.96F
LUDINGTON      PTCLDY    72  72 100 SW5       29.92F
MARSHALL       CLEAR     72  72 100 SW5       29.96S
MOUNT PLEASANT MOCLDY    73  71  91 SW5       29.92F
MUSKEGON       MOCLDY    75  73  93 SW7       29.94F
SOUTH HAVEN    CLEAR     73  73  97 S3        29.96S
$$
MIZ016>042-250500-
NORTHERN LOWER MICHIGAN

CITY           SKY/WX    TMP DP  RH WIND       PRES   REMARKS
ALPENA         CLEAR     74  67  78 SW5       29.88F
BEAVER ISLAND  CLOUDY    70  69  98 SW3       29.88F
BELLAIRE       MOCLDY    74  69  86 SW5       29.90S
CADILLAC       PTCLDY    71  68  92 W6        29.94F
CHARLEVOIX     CLOUDY    73  71  92 SW9       29.92S
FRANKFORT      MOCLDY    72  69  91 CALM      29.91F
GAYLORD        CLOUDY    72  67  84 W3        29.93S
GRAYLING       CLEAR     71  68  92 CALM      29.93F
HARBOR SPRINGS CLOUDY    73  70  92 W5        29.88F
HOUGHTON LAKE  MOCLDY    71  68  90 SW7       29.94F
MANISTEE       CLEAR     71  70  96 CALM      29.92S
OSCODA         CLEAR     71  70  96 SW7       29.89F
PELLSTON       MOCLDY    73  68  84 W9        29.88F
ROGERS CITY    MOCLDY    74  68  82 W6        29.89R
TRAVERSE CITY  PTCLDY    74  70  87 SW7       29.90S
$$
MIZ007>008-015-250500-
EASTERN UPPER MICHIGAN

CITY           SKY/WX    TMP DP  RH WIND       PRES   REMARKS
KINROSS        MOCLDY    68  66  94 W5        29.86S
MACKINAC ISLAN CLOUDY    70  70 100 SW7       29.87S
NEWBERRY       CLEAR     65  64  96 SW3       29.86F FOG
S. S. MARIE    CLOUDY    70  69  97 W6        29.84F
$$
MIZ004>006-011>014-085-250500-
CENTRAL UPPER MICHIGAN

CITY           SKY/WX    TMP DP  RH WIND       PRES   REMARKS
MANISTIQUE     FOG       66  64  93 CALM      29.86F VSB 1
ESCANABA       CLEAR     68  66  93 W7        29.88S
MENOMINEE      CLEAR    N/A N/A N/A VRB3      29.91S
SAWYER-GWINN   CLEAR     66  65  94 S5        29.89S
$$
MIZ001>003-009>011-084-250500-
WESTERN UPPER MICHIGAN

CITY           SKY/WX    TMP DP  RH WIND       PRES   REMARKS
IRON MOUNTAIN  PTCLDY    68  63  84 SW3       29.91R
HOUGHTON       CLOUDY    71  57  61 W13       29.85R
COPPER HARBOR    N/A     73  61  65 NW6       29.80R
IRONWOOD       MOCLDY    65  57  75 W9        29.93R
$$

ABBREVIATIONS USED IN REMARKS
   TC - TEMPERATURE IN CELSIUS
  WCI - WIND CHILL INDEX
   HX - HEAT INDEX
  VSB - VISIBILITY





USA.gov is the U.S. government's official web portal to all federal, state and local government web resources and services.